Weather History for Huntsville, AL

Change the Weather History Date:

Wednesday, May 8, 2013

  Actual Average Record
Temperature  
Mean Temperature 66 °F 68 °F  
Max Temperature 79 °F 79 °F 93 °F (1986)
Min Temperature 52 °F 57 °F 39 °F (1958)
Degree Days  
Heating Degree Days 0 1  
Month to date heating degree days 55 13  
Since 1 July heating degree days 3026 2987  
Cooling Degree Days 1 4  
Month to date cooling degree days 7 30  
Year to date cooling degree days 66 102  
Growing Degree Days 16 (Base 50)    
Moisture  
Dew Point 56 °F    
Average Humidity 75    
Maximum Humidity 100    
Minimum Humidity 50    
Precipitation  
Precipitation 0.00 in 0.17 in 2.40 in (1975)
Month to date precipitation 5.08 1.39  
Year to date precipitation 27.60 20.65  
Snow  
Snow 0.00 in - - ()
Month to date snowfall 0.0  
Since 1 July snowfall 0.7  
Snow Depth 0.00 in    
Sea Level Pressure  
Sea Level Pressure 30.04 in    
Wind  
Wind Speed 3 mph (West)    
Max Wind Speed 12 mph    
Max Gust Speed 15 mph    
Visibility 8 miles    
Events      
T = Trace of Precipitation, MM = Missing Value Source: NWS Daily Summary

Daily Weather History Graph

Daily Weather History Graph

Search for Another Location

Airport:

Trip Planner

Search our weather history database for the weather conditions in past years. The results will help you decide how hot, cold, wet, or windy it might be!

Date:

Astronomy

May. 08, 2013 Rise Set
Actual Time 5:49 AM CDT 7:37 PM CDT
Civil Twilight 5:22 AM CDT 8:05 PM CDT
Nautical Twilight 4:49 AM CDT 8:38 PM CDT
Astronomical Twilight 4:14 AM CDT 9:13 PM CDT
Moon 4:54 AM CDT (5/8) 6:37 PM CDT (5/8)
Length of Visible Light 14h 42m
Length of Day
13h 47m
Waning Crescent, 2% of the Moon is Illuminated
May 8
Waning Crescent
May 9
New
May 17
First Quarter
May 24
Full
May 31
Last Quarter

Hourly Weather History & Observations

Time (CDT) Temp. Dew Point Humidity Pressure Visibility Wind Dir Wind Speed Gust Speed Precip Events Conditions
12:04 AM 53.6 °F 51.8 °F 94% 30.02 in 1.5 mi SW 3.5 mph - N/A   Clear
12:15 AM 53.6 °F 51.8 °F 94% 30.02 in 3.0 mi Calm Calm - N/A   Clear
12:53 AM 55.0 °F 54.0 °F 96% 30.01 in 7.0 mi Calm Calm - N/A   Clear
1:53 AM 54.0 °F 52.0 °F 93% 29.99 in 7.0 mi Calm Calm - N/A   Clear
2:27 AM 53.6 °F 51.8 °F 94% 30.00 in 1.8 mi Calm Calm - N/A   Mostly Cloudy
2:37 AM 53.6 °F 53.6 °F 100% 30.01 in 3.0 mi Calm Calm - N/A   Mostly Cloudy
2:53 AM 54.0 °F 52.0 °F 93% 29.99 in 9.0 mi Calm Calm - N/A   Scattered Clouds
3:53 AM 53.1 °F 51.1 °F 93% 30.01 in 10.0 mi Calm Calm - N/A   Partly Cloudy
4:53 AM 53.1 °F 52.0 °F 96% 30.01 in 6.0 mi SE 3.5 mph - N/A   Clear
5:53 AM 53.1 °F 51.1 °F 93% 30.03 in 7.0 mi ESE 3.5 mph - N/A   Mostly Cloudy
6:53 AM 54.0 °F 53.1 °F 97% 30.06 in 7.0 mi Calm Calm - N/A   Mostly Cloudy
7:53 AM 59.0 °F 55.9 °F 90% 30.07 in 8.0 mi SSW 3.5 mph - N/A   Scattered Clouds
8:53 AM 62.1 °F 57.0 °F 84% 30.08 in 10.0 mi Calm Calm - N/A   Scattered Clouds
9:53 AM 68.0 °F 59.0 °F 73% 30.08 in 10.0 mi NW 3.5 mph - N/A   Partly Cloudy
10:53 AM 73.0 °F 61.0 °F 66% 30.08 in 10.0 mi WNW 3.5 mph - N/A   Partly Cloudy
11:53 AM 73.9 °F 60.1 °F 62% 30.08 in 10.0 mi WNW 3.5 mph - N/A   Scattered Clouds
12:53 PM 73.9 °F 60.1 °F 62% 30.06 in 10.0 mi WSW 5.8 mph - N/A   Mostly Cloudy
1:53 PM 75.0 °F 57.9 °F 55% 30.06 in 10.0 mi West 5.8 mph - N/A   Mostly Cloudy
2:53 PM 78.1 °F 59.0 °F 52% 30.04 in 10.0 mi West 6.9 mph - N/A   Scattered Clouds
3:53 PM 77.0 °F 57.9 °F 52% 30.03 in 10.0 mi WNW 6.9 mph - N/A   Scattered Clouds
4:53 PM 78.1 °F 59.0 °F 52% 30.02 in 10.0 mi West 8.1 mph - N/A   Scattered Clouds
5:53 PM 75.0 °F 57.9 °F 55% 30.02 in 10.0 mi WNW 4.6 mph - N/A   Scattered Clouds
6:53 PM 73.9 °F 59.0 °F 59% 30.02 in 10.0 mi Calm Calm - N/A   Partly Cloudy
7:53 PM 71.1 °F 57.9 °F 63% 30.03 in 10.0 mi Calm Calm - N/A   Partly Cloudy
8:53 PM 66.0 °F 60.1 °F 81% 30.05 in 10.0 mi Calm Calm - N/A   Partly Cloudy
9:53 PM 64.9 °F 61.0 °F 87% 30.06 in 10.0 mi Calm Calm - N/A   Scattered Clouds
10:53 PM 61.0 °F 57.9 °F 90% 30.06 in 10.0 mi Calm Calm - N/A   Partly Cloudy
11:53 PM 63.0 °F 59.0 °F 87% 30.05 in 10.0 mi Calm Calm - N/A   Partly Cloudy